Regional Weather Roundup
Issued by NWS

Home | Current Version | Previous Version | Graphics & Text | Print | Product List | Glossary On
Versions: 1 2 3 4 5 6 7 8 9 10 11 12 13 14 15 16 17 18 19 20 21 22 23 24 25 26 27 28 29 30 31 32 33 34 35 36 37 38 39 40 41 42 43 44 45 46 47 48 49 50
000
ASUS43 KMPX 311601
RWRMN
WEATHER ROUNDUP FOR MINNESOTA
NATIONAL WEATHER SERVICE TWIN CITIES/CHANHASSEN MN
1100 AM CDT WED AUG 31 2016


NOTE: "FAIR" INDICATES FEW OR NO CLOUDS BELOW 12,000 FEET WITH NO
SIGNIFICANT WEATHER AND/OR OBSTRUCTIONS TO VISIBILITY. N/A MEANS
CURRENT SKY AND/OR WEATHER CONDITIONS ARE NOT AVAILABLE.

MNZ060>063-068>070-311700-
   Twin Cities Metro

CITY           SKY/WX    TMP DP  RH WIND       PRES   REMARKS
TWIN CITIES    MOSUNNY   73  52  47 N8        30.22S
ST PAUL        SUNNY     72  53  51 N9        30.22S
CRYSTAL        SUNNY     72  50  45 N7        30.21S
BLAINE         SUNNY     72  54  53 N7        30.22S
LAKEVILLE      SUNNY     72  54  53 N7        30.21S
EDEN PRAIRIE   SUNNY     74  55  51 N6        30.21S
LAKEVILLE      SUNNY     72  54  53 N7        30.21S
SOUTH ST PAUL  SUNNY     71  51  48 N6        30.21S
LAKE ELMO      FAIR      70  54  56 N7        30.23S
$$
MNZ001>005-007-008-013>017-022>024-027-028-311700-
   Northwest Minnesota

CITY           SKY/WX    TMP DP  RH WIND       PRES   REMARKS
BEMIDJI        SUNNY     66  54  64 NE5       30.27S
HALLOCK        SUNNY     66  55  68 N7        30.30S
ROSEAU         SUNNY     64  55  72 N6        30.29R
WARROAD        SUNNY     64  57  77 N7        30.29R
THIEF RVR FALL SUNNY     66  53  63 N7        30.29S
CROOKSTON      SUNNY     68  54  60 E5        30.28S
FOSSTON        SUNNY     68  63  83 N3        30.28S
DETROIT LAKES  SUNNY     70  54  56 CALM      30.27S
MOORHEAD       SUNNY     72  52  49 CALM      30.27R
PARK RAPIDS    SUNNY     70  48  45 N8        30.25
MAHNOMEN       FAIR      66  54  65 NE5       30.27R
$$
MNZ006-009>011-018-025>026-311700-
   North Central Minnesota

CITY           SKY/WX    TMP DP  RH WIND       PRES   REMARKS
BAUDETTE       CLOUDY    64  56  75 NW6       30.27R
FLAG ISLAND    CLOUDY    61  55  82 CALM      30.27S HAZE
INTL FALLS     MOSUNNY   66  55  67 N8        30.25R
WASKISH        SUNNY     66  55  68 NW5       30.27S
BIG FORK       SUNNY     66  54  63 NW5       30.25S
LONGVILLE      SUNNY     68  52  56 NW3       30.25S
GRAND RAPIDS   SUNNY     66  54  65 NW10      30.26S
ORR            SUNNY     66  54  63 CALM      30.22S
COOK           PTSUNNY   64  54  68 NW5       30.24S
WALKER         FAIR      65  52  62 N8        30.26S
$$
MNZ012-019>021-037-311700-
   Northeast Minnesota

CITY           SKY/WX    TMP DP  RH WIND       PRES   REMARKS
DULUTH         SUNNY     70  50  49 NW8       30.22S
ELY            MOSUNNY   64  52  63 NW6       30.22S
HIBBING          N/A    N/A N/A N/A MISG      30.24R
EVELETH        SUNNY     66  49  54 N9        30.24R
DULUTH HARBOR  SUNNY     72  55  56 CALM      30.21S
TWO HARBORS    SUNNY     73  55  53 N5        30.19S
SILVER BAY     SUNNY     72  54  53 N5        30.19S
GRAND MARAIS     N/A     68  46  45 VRB3      30.18R
G MARAIS ARPRT CLOUDY    63  52  67 NW9       30.22S
$$
MNZ029>031-032-039>041-046>048-054>057-064-311700-
   West Central Minnesota

CITY           SKY/WX    TMP DP  RH WIND       PRES   REMARKS
FERGUS FALLS   SUNNY     72  55  56 CALM      30.27R
WHEATON        SUNNY     73  59  60 CALM      30.26S
MORRIS         SUNNY     73  57  56 CALM      30.24S
ALEXANDRIA     SUNNY     73  56  54 NW7       30.26F
ELBOW LAKE     FAIR      72  57  60 NW3       30.26S
WADENA         SUNNY     70  55  60 W3        30.25S
GLENWOOD       SUNNY     72  57  60 CALM      30.25S
APPLETON       CLOUDY    73  55  53 CALM      30.23F
BENSON         SUNNY     73  52  46 CALM      30.24S
ORTONVILLE     CLOUDY    73  57  56 CALM      30.24S
MADISON        MOSUNNY   72  59  64 W5        30.24S
WILLMAR        FAIR      73  55  53 CALM      30.25S
$$
MNZ033>034-036-042>043-049>051-058-059-311700-
   Central Minnesota

CITY           SKY/WX    TMP DP  RH WIND       PRES   REMARKS
ST CLOUD       SUNNY     71  54  54 NW3       30.23F
SAUK CENTRE    FAIR      70  55  57 N5        30.24F
PAYNESVILLE    SUNNY     72  54  53 N3        30.24F
AITKIN         SUNNY     72  52  49 NW5       30.22F
PINE RIVER     SUNNY     68  55  64 NW6       30.27S
BRAINERD       SUNNY     69  56  62 VRB3      30.24F
STAPLES        MOSUNNY   70  54  56 CALM      30.25S
LONG PRAIRIE   FAIR      70  54  56 W6        30.25F
LITTLE FALLS   SUNNY     70  52  52 NW3       30.24F
LITCHFIELD     SUNNY     72  57  60 N3        30.23F
BUFFALO        SUNNY     70  53  54 N7        30.24S
MAPLE LAKE     SUNNY     72  58  61 CALM      30.24S
HUTCHINSON     SUNNY     72  58  59 N3        30.24S
$$
MNZ037-044-045-052-053-311700-
   East Central Minnesota

CITY           SKY/WX    TMP DP  RH WIND       PRES   REMARKS
PRINCETON      SUNNY     72  54  53 NW3       30.23S
MORA           SUNNY     70  52  52 CALM      30.24S
CAMBRIDGE      SUNNY     72  54  53 CALM      30.21F
RUSH CITY      SUNNY     70  53  55 N3        30.23S
MOOSE LAKE     SUNNY     68  50  52 N7        30.21S
HINCKLEY       FAIR      70  52  52 N3        30.23S
CLOQUET        SUNNY     68  48  49 W9        30.22F
MCGREGOR       SUNNY     70  50  49 NW8       30.24S
$$
MNZ071>073-080-081-089-090-097-098-311700-
   Southwest Minnesota

CITY           SKY/WX    TMP DP  RH WIND       PRES   REMARKS
MONTEVIDEO     SUNNY     75  63  64 CALM      30.25S
GRANITE FALLS  SUNNY     73  58  59 CALM      30.25S
CANBY          CLOUDY    72  59  65 N5        30.26R
MARSHALL       PTSUNNY   69  61  75 W3        30.25S
REDWOOD FALLS  SUNNY     71  53  52 CALM      30.23S
OLIVIA         SUNNY     70  55  60 CALM      30.23S
WINDOM         SUNNY     72  55  56 N3        30.24S
WORTHINGTON    SUNNY     72  57  59 N5        30.26R
JACKSON        SUNNY     72  55  56 NE3       30.25R
TRACY          CLOUDY    72  59  64 CALM      30.25S
SLAYTON        CLOUDY    70  59  68 CALM      30.26S
$$
MNZ065>067-074>077-082>085-091>093-311700-
   South Central Minnesota

CITY           SKY/WX    TMP DP  RH WIND       PRES   REMARKS
MANKATO        SUNNY     71  56  58 N7        30.23R
NEW ULM          N/A     72  55  56 CALM      30.23S
ST JAMES       SUNNY     70  59  68 CALM      30.24R
FAIRMONT       SUNNY     71  61  70 VRB5      30.23S
GLENCOE        SUNNY     72  61  69 W3        30.22S
FARIBAULT      SUNNY     72  55  56 N5        30.22S
OWATONNA       SUNNY     72  54  53 NW6       30.22R
WASECA         SUNNY     72  59  64 N3        30.23S
ALBERT LEA     SUNNY     72  55  56 N3        30.22R
$$
MNZ078>079-086>088-094>096-311700-
   Southeast Minnesota

CITY           SKY/WX    TMP DP  RH WIND       PRES   REMARKS
ROCHESTER      SUNNY     73  54  51 N8        30.22R
RED WING       SUNNY     73  54  49 N7        30.19S
STANTON        SUNNY     72  57  60 VRB6      30.20S
DODGE CENTER   SUNNY     72  55  56 N6        30.22R
WINONA         SUNNY     70  57  64 N5        30.19S
AUSTIN         SUNNY     72  55  56 N6        30.21S
PRESTON        SUNNY     69  54  57 N8        30.21R
$$
ABBREVIATIONS USED IN REMARKS
   TC - TEMPERATURES IN CELSIUS
  WCI - WIND CHILL INDEX
   HX - HEAT INDEX
  VSB - VISIBILITY
$$



USA.gov is the U.S. government's official web portal to all federal, state and local government web resources and services.